Salt Lake City, UT

4:09 PM MST on January 16, 2017 (GMT -0700)
Salt Lake City International

Weather History for KSLC - April, 2013

Change the Weather History Date:

Thursday, April 25, 2013

  Actual Average Record
Temperature  
Mean Temperature 52 °F 53 °F  
Max Temperature 65 °F 64 °F 84 °F (1946)
Min Temperature 38 °F 42 °F 26 °F (1950)
Degree Days  
Heating Degree Days 13 12  
Month to date heating degree days 427 381  
Since 1 July heating degree days 5285 5299  
Cooling Degree Days 0 0  
Month to date cooling degree days 0 0  
Year to date cooling degree days 0 0  
Moisture  
Dew Point 21 °F    
Average Humidity 37    
Maximum Humidity 59    
Minimum Humidity 15    
Precipitation  
Precipitation 0.00 in 0.07 in 1.62 in (1976)
Month to date precipitation 1.96 1.64  
Year to date precipitation 4.87 5.93  
Snow  
Snow 0.00 in 0.00 in 8.50 in (1975)
Month to date snowfall T 3.6  
Since 1 July snowfall 69.8 55.5  
Snow Depth 0.00 in    
Sea Level Pressure  
Sea Level Pressure 29.99 in    
Wind  
Wind Speed 7 mph (SE)    
Max Wind Speed 15 mph    
Max Gust Speed 18 mph    
Visibility 10 miles    
Events      
T = Trace of Precipitation, MM = Missing Value Source: NWS Daily Summary

Daily Weather History Graph

Daily Weather History Graph

Search for Another Location

Airport or City:

Trip Planner

Search our weather history database for the weather conditions in past years. The results will help you decide how hot, cold, wet, or windy it might be!

Date:

Astronomy

Apr. 25, 2013 Rise Set
Actual Time 6:33 AM MDT 8:18 PM MDT
Civil Twilight 6:04 AM MDT 8:47 PM MDT
Nautical Twilight 5:29 AM MDT 9:23 PM MDT
Astronomical Twilight 4:51 AM MDT 10:01 PM MDT
Moon 8:36 PM MDT (4/25) 6:19 AM MDT (4/25)
Length of Visible Light 14h 42m
Length of Day
13h 44m
Full, 100% of the Moon is Illuminated
Apr 25
Full
Apr 25
Full
May 2
Last Quarter
May 9
New
May 17
First Quarter

Hourly Weather History & Observations

Time (MDT) Temp. Windchill Dew Point Humidity Pressure Visibility Wind Dir Wind Speed Gust Speed Precip Events Conditions
12:53 AM 46.0 °F 43.1 °F 25.0 °F 44% 30.05 in 10.0 mi SSE 5.8 mph - N/A   Clear
1:53 AM 43.0 °F 40.3 °F 25.0 °F 49% 30.05 in 10.0 mi ESE 4.6 mph - N/A   Clear
2:53 AM 43.0 °F 39.5 °F 25.0 °F 49% 30.03 in 10.0 mi SSE 5.8 mph - N/A   Clear
3:53 AM 41.0 °F 38.0 °F 26.1 °F 55% 30.01 in 10.0 mi SE 4.6 mph - N/A   Clear
4:53 AM 37.4 °F 32.8 °F 24.8 °F 60% 30.06 in 10.0 mi ESE 5.8 mph - N/A   Clear
5:53 AM 37.9 °F 32.7 °F 25.0 °F 60% 30.01 in 10.0 mi SSE 6.9 mph - N/A   Clear
6:53 AM 37.9 °F 32.7 °F 24.1 °F 57% 30.02 in 10.0 mi SE 6.9 mph - N/A   Partly Cloudy
7:53 AM 44.1 °F 40.1 °F 25.0 °F 47% 30.02 in 10.0 mi SSE 6.9 mph - N/A   Partly Cloudy
8:53 AM 50.0 °F - 25.0 °F 38% 30.01 in 10.0 mi SE 10.4 mph - N/A   Partly Cloudy
9:53 AM 54.0 °F - 21.0 °F 28% 30.00 in 10.0 mi SSE 4.6 mph - N/A   Scattered Clouds
10:53 AM 57.9 °F - 24.1 °F 27% 30.00 in 10.0 mi NW 5.8 mph - N/A   Scattered Clouds
11:53 AM 60.1 °F - 26.1 °F 27% 29.98 in 10.0 mi North 4.6 mph - N/A   Partly Cloudy
12:53 PM 61.0 °F - 26.1 °F 26% 29.96 in 10.0 mi NW 8.1 mph - N/A   Partly Cloudy
1:53 PM 64.0 °F - 24.1 °F 22% 29.95 in 10.0 mi Variable 5.8 mph - N/A   Scattered Clouds
2:53 PM 64.0 °F - 27.0 °F 25% 29.94 in 10.0 mi West 8.1 mph - N/A   Scattered Clouds
3:53 PM 63.0 °F - 24.1 °F 23% 29.95 in 8.0 mi NW 9.2 mph 18.4 mph N/A   Mostly Cloudy
4:53 PM 64.0 °F - 16.0 °F 16% 29.94 in 8.0 mi WNW 6.9 mph - N/A   Mostly Cloudy
5:53 PM 63.0 °F - 18.0 °F 18% 29.95 in 10.0 mi North 10.4 mph - N/A   Mostly Cloudy
6:53 PM 63.0 °F - 10.9 °F 13% 29.96 in 10.0 mi North 3.5 mph - N/A   Mostly Cloudy
7:53 PM 60.1 °F - 10.9 °F 14% 29.96 in 10.0 mi North 3.5 mph - N/A   Scattered Clouds
8:53 PM 57.9 °F - 9.0 °F 14% 29.96 in 10.0 mi ESE 3.5 mph - N/A   Scattered Clouds
9:53 PM 52.0 °F - 12.9 °F 21% 29.99 in 10.0 mi SSE 4.6 mph - N/A   Partly Cloudy
10:53 PM 52.0 °F - 12.0 °F 20% 29.99 in 10.0 mi South 4.6 mph - N/A   Partly Cloudy
11:53 PM 52.0 °F - 12.0 °F 20% 29.99 in 10.0 mi South 5.8 mph - N/A   Partly Cloudy